{"data":{"norad_id":54640,"epoch":"2026-09-21T23:06:16.067808Z","epoch_age_seconds":35931,"freshness":"FRESH","line1":"1 54640U 22165A   26264.96268597  .00000209  00000+0  55701-4 0  9999","line2":"2 54640  98.2393 201.3129 0003054  74.4021 285.7515 14.57762504201516","mean_motion":14.57762504,"eccentricity":0.0003054,"inclination_deg":98.2393,"raan_deg":201.3129,"arg_perigee_deg":74.4021,"mean_anomaly_deg":285.7515,"bstar":5.5701e-5,"rev_number":20151,"period_min":98.78152278226,"perigee_km":698.24611155427,"apogee_km":702.56968677868,"semimajor_km":7078.5448991665,"source":"CELESTRAK","updated_at":"2026-09-22T09:00:25.146984Z"}}